Time,TemperatureF,DewpointF,PressureIn,WindDirection,WindDirectionDegrees,WindSpeedMPH,WindSpeedGustMPH,Humidity,HourlyPrecipIn,Conditions,Clouds,dailyrainin,SoftwareType,DateUTC
2013-03-06 00:01:00,23.0,6.0,-100.00,SE,125,4.0,4.0,46,-99.99,,,-99.99,,2013-03-06 07:01:00,
2013-03-06 00:11:00,24.0,6.0,-100.00,SE,140,3.0,4.0,46,-99.99,,,-99.99,,2013-03-06 07:11:00,
2013-03-06 00:21:00,23.0,6.0,-100.00,SE,135,2.0,5.0,47,-99.99,,,-99.99,,2013-03-06 07:21:00,
2013-03-06 00:31:00,23.0,6.0,-100.00,SE,145,2.0,5.0,46,-99.99,,,-99.99,,2013-03-06 07:31:00,
2013-03-06 00:41:00,23.0,5.0,-100.00,SSW,195,4.0,6.0,46,-99.99,,,-99.99,,2013-03-06 07:41:00,
2013-03-06 00:52:00,24.0,5.0,-100.00,South,190,4.0,6.0,43,-99.99,,,-99.99,,2013-03-06 07:52:00,
2013-03-06 01:01:00,23.0,5.0,-100.00,SSW,200,4.0,6.0,43,-99.99,,,-99.99,,2013-03-06 08:01:00,
2013-03-06 01:11:00,23.0,5.0,-100.00,SE,140,2.0,6.0,44,-99.99,,,-99.99,,2013-03-06 08:11:00,
2013-03-06 01:21:00,24.0,5.0,-100.00,South,185,2.0,3.0,43,-99.99,,,-99.99,,2013-03-06 08:21:00,
2013-03-06 01:31:00,23.0,5.0,-100.00,SW,220,1.0,3.0,44,-99.99,,,-99.99,,2013-03-06 08:31:00,
2013-03-06 01:41:00,23.0,5.0,-100.00,SW,235,2.0,3.0,45,-99.99,,,-99.99,,2013-03-06 08:41:00,
2013-03-06 01:52:00,23.0,5.0,-100.00,West,270,3.0,4.0,44,-99.99,,,-99.99,,2013-03-06 08:52:00,
2013-03-06 02:01:00,25.0,5.0,-100.00,WNW,285,3.0,4.0,42,-99.99,,,-99.99,,2013-03-06 09:01:00,
2013-03-06 02:12:00,25.0,5.0,-100.00,West,280,2.0,4.0,42,-99.99,,,-99.99,,2013-03-06 09:12:00,
2013-03-06 02:21:00,24.0,5.0,-100.00,SSE,165,2.0,4.0,43,-99.99,,,-99.99,,2013-03-06 09:21:00,
2013-03-06 02:31:00,24.0,5.0,-100.00,South,185,5.0,6.0,43,-99.99,,,-99.99,,2013-03-06 09:31:00,
2013-03-06 02:41:00,23.0,5.0,-100.00,SSE,160,4.0,6.0,44,-99.99,,,-99.99,,2013-03-06 09:41:00,
2013-03-06 02:51:00,23.0,4.0,-100.00,SSE,150,4.0,4.0,43,-99.99,,,-99.99,,2013-03-06 09:51:00,
2013-03-06 03:01:00,24.0,5.0,-100.00,South,185,4.0,6.0,42,-99.99,,,-99.99,,2013-03-06 10:01:00,
2013-03-06 03:11:00,24.0,5.0,-100.00,South,175,5.0,6.0,41,-99.99,,,-99.99,,2013-03-06 10:11:00,
2013-03-06 03:21:00,24.0,4.0,-100.00,South,175,5.0,7.0,41,-99.99,,,-99.99,,2013-03-06 10:21:00,
2013-03-06 03:31:00,24.0,4.0,-100.00,SSE,160,4.0,6.0,40,-99.99,,,-99.99,,2013-03-06 10:31:00,
2013-03-06 03:41:00,24.0,4.0,-100.00,SSE,155,2.0,4.0,41,-99.99,,,-99.99,,2013-03-06 10:41:00,
2013-03-06 03:51:00,25.0,4.0,-100.00,SW,215,0.0,1.0,39,-99.99,,,-99.99,,2013-03-06 10:51:00,
2013-03-06 04:01:00,23.0,3.0,-100.00,SSW,205,2.0,2.0,41,-99.99,,,-99.99,,2013-03-06 11:01:00,
2013-03-06 04:11:00,24.0,3.0,-100.00,South,180,4.0,6.0,40,-99.99,,,-99.99,,2013-03-06 11:11:00,
2013-03-06 04:22:00,24.0,3.0,-100.00,South,180,8.0,9.0,40,-99.99,,,-99.99,,2013-03-06 11:22:00,
2013-03-06 04:31:00,24.0,4.0,-100.00,South,180,7.0,9.0,40,-99.99,,,-99.99,,2013-03-06 11:31:00,
2013-03-06 04:42:00,25.0,4.0,-100.00,South,175,6.0,9.0,39,-99.99,,,-99.99,,2013-03-06 11:42:00,
2013-03-06 04:52:00,25.0,4.0,-100.00,SSE,155,7.0,7.0,39,-99.99,,,-99.99,,2013-03-06 11:52:00,
2013-03-06 05:01:00,24.0,4.0,-100.00,SSE,160,6.0,9.0,41,-99.99,,,-99.99,,2013-03-06 12:01:00,
2013-03-06 05:21:00,23.0,4.0,-100.00,South,185,6.0,10.0,44,-99.99,,,-99.99,,2013-03-06 12:21:00,
2013-03-06 05:32:00,23.0,5.0,-100.00,South,170,6.0,9.0,45,-99.99,,,-99.99,,2013-03-06 12:32:00,
2013-03-06 05:42:00,24.0,5.0,-100.00,SSE,155,7.0,7.0,43,-99.99,,,-99.99,,2013-03-06 12:42:00,
2013-03-06 05:52:00,24.0,4.0,-100.00,South,180,5.0,7.0,43,-99.99,,,-99.99,,2013-03-06 12:52:00,
2013-03-06 06:01:00,25.0,4.0,-100.00,South,175,2.0,6.0,41,-99.99,,,-99.99,,2013-03-06 13:01:00,
2013-03-06 06:11:00,25.0,4.0,-100.00,SSE,150,4.0,4.0,41,-99.99,,,-99.99,,2013-03-06 13:11:00,
2013-03-06 06:21:00,22.0,4.0,-100.00,South,185,13.0,14.0,45,-99.99,,,-99.99,,2013-03-06 13:21:00,
2013-03-06 06:31:00,24.0,4.0,-100.00,SSW,195,13.0,14.0,43,-99.99,,,-99.99,,2013-03-06 13:31:00,
2013-03-06 06:41:00,25.0,5.0,-100.00,SSW,200,9.0,12.0,40,-99.99,,,-99.99,,2013-03-06 13:41:00,
2013-03-06 06:51:00,26.0,5.0,-100.00,South,185,10.0,11.0,39,-99.99,,,-99.99,,2013-03-06 13:51:00,
2013-03-06 07:01:00,24.0,5.0,-100.00,South,185,13.0,16.0,42,-99.99,,,-99.99,,2013-03-06 14:01:00,
2013-03-06 07:11:00,27.0,6.0,-100.00,South,170,12.0,14.0,40,-99.99,,,-99.99,,2013-03-06 14:11:00,
2013-03-06 07:21:00,25.0,5.0,-100.00,SSE,150,9.0,12.0,41,-99.99,,,-99.99,,2013-03-06 14:21:00,
2013-03-06 07:32:00,26.0,5.0,-100.00,South,180,12.0,14.0,39,-99.99,,,-99.99,,2013-03-06 14:32:00,
2013-03-06 07:41:00,24.0,5.0,-100.00,SSW,195,11.0,12.0,43,-99.99,,,-99.99,,2013-03-06 14:41:00,
2013-03-06 07:52:00,27.0,6.0,-100.00,SSW,195,9.0,11.0,39,-99.99,,,-99.99,,2013-03-06 14:52:00,
2013-03-06 08:01:00,27.0,6.0,-100.00,SSW,200,9.0,10.0,39,-99.99,,,-99.99,,2013-03-06 15:01:00,
2013-03-06 08:11:00,28.0,6.0,-100.00,SSW,210,9.0,10.0,39,-99.99,,,-99.99,,2013-03-06 15:11:00,
2013-03-06 08:21:00,29.0,7.0,-100.00,South,190,9.0,10.0,40,-99.99,,,-99.99,,2013-03-06 15:21:00,
2013-03-06 08:32:00,31.0,9.0,-100.00,South,175,7.0,10.0,39,-99.99,,,-99.99,,2013-03-06 15:32:00,
2013-03-06 08:41:00,32.0,10.0,-100.00,SSE,165,5.0,7.0,39,-99.99,,,-99.99,,2013-03-06 15:41:00,
2013-03-06 08:51:00,32.0,11.0,-100.00,South,190,7.0,9.0,39,-99.99,,,-99.99,,2013-03-06 15:51:00,
2013-03-06 09:01:00,33.0,11.0,-100.00,South,185,6.0,9.0,39,-99.99,,,-99.99,,2013-03-06 16:01:00,
2013-03-06 09:11:00,35.0,12.0,-100.00,SE,145,2.0,8.0,39,-99.99,,,-99.99,,2013-03-06 16:11:00,
2013-03-06 09:21:00,33.0,12.0,-100.00,SSE,150,8.0,10.0,40,-99.99,,,-99.99,,2013-03-06 16:21:00,
2013-03-06 09:32:00,34.0,13.0,-100.00,SE,145,8.0,9.0,40,-99.99,,,-99.99,,2013-03-06 16:32:00,
2013-03-06 09:41:00,34.0,12.0,-100.00,SSE,150,7.0,9.0,39,-99.99,,,-99.99,,2013-03-06 16:41:00,
2013-03-06 09:51:00,36.0,13.0,-100.00,SE,145,8.0,10.0,38,-99.99,,,-99.99,,2013-03-06 16:51:00,
2013-03-06 10:01:00,37.0,13.0,-100.00,SSE,160,8.0,9.0,36,-99.99,,,-99.99,,2013-03-06 17:01:00,
2013-03-06 10:11:00,37.0,13.0,-100.00,SSE,150,9.0,11.0,36,-99.99,,,-99.99,,2013-03-06 17:11:00,
2013-03-06 10:21:00,40.0,13.0,-100.00,SSE,165,9.0,11.0,32,-99.99,,,-99.99,,2013-03-06 17:21:00,
2013-03-06 10:31:00,40.0,12.0,-100.00,SSE,155,7.0,11.0,31,-99.99,,,-99.99,,2013-03-06 17:31:00,
2013-03-06 10:41:00,41.0,12.0,-100.00,ESE,115,6.0,8.0,30,-99.99,,,-99.99,,2013-03-06 17:41:00,
2013-03-06 10:52:00,39.0,10.0,-100.00,SE,140,7.0,9.0,29,-99.99,,,-99.99,,2013-03-06 17:52:00,
2013-03-06 11:01:00,40.0,10.0,-100.00,SE,130,7.0,9.0,29,-99.99,,,-99.99,,2013-03-06 18:01:00,
2013-03-06 11:28:00,40.0,12.0,-100.00,SE,125,10.0,11.0,31,-99.99,,,-99.99,,2013-03-06 18:28:00,
2013-03-06 11:41:00,39.0,13.0,-100.00,SE,140,8.0,11.0,34,-99.99,,,-99.99,,2013-03-06 18:41:00,
2013-03-06 11:52:00,39.0,14.0,-100.00,SE,130,12.0,12.0,35,-99.99,,,-99.99,,2013-03-06 18:52:00,
2013-03-06 12:02:00,38.0,14.0,-100.00,SE,140,9.0,12.0,37,-99.99,,,-99.99,,2013-03-06 19:02:00,
2013-03-06 12:11:00,38.0,14.0,-100.00,SE,135,10.0,11.0,37,-99.99,,,-99.99,,2013-03-06 19:11:00,
2013-03-06 12:21:00,38.0,15.0,-100.00,SE,130,11.0,16.0,38,-99.99,,,-99.99,,2013-03-06 19:21:00,
2013-03-06 12:31:00,37.0,14.0,-100.00,SE,140,10.0,14.0,38,-99.99,,,-99.99,,2013-03-06 19:31:00,
2013-03-06 12:42:00,39.0,15.0,-100.00,SE,135,12.0,14.0,37,-99.99,,,-99.99,,2013-03-06 19:42:00,
2013-03-06 12:52:00,40.0,16.0,-100.00,SE,135,12.0,16.0,37,-99.99,,,-99.99,,2013-03-06 19:52:00,
2013-03-06 13:01:00,41.0,17.0,-100.00,SSE,150,12.0,14.0,37,-99.99,,,-99.99,,2013-03-06 20:01:00,
2013-03-06 13:11:00,43.0,18.0,-100.00,SE,145,10.0,14.0,37,-99.99,,,-99.99,,2013-03-06 20:11:00,
2013-03-06 13:21:00,44.0,18.0,-100.00,SE,135,12.0,16.0,35,-99.99,,,-99.99,,2013-03-06 20:21:00,
2013-03-06 13:31:00,44.0,19.0,-100.00,SE,130,13.0,15.0,35,-99.99,,,-99.99,,2013-03-06 20:31:00,
2013-03-06 13:41:00,46.0,18.0,-100.00,SE,145,14.0,17.0,33,-99.99,,,-99.99,,2013-03-06 20:41:00,
2013-03-06 13:52:00,45.0,19.0,-100.00,SE,130,15.0,17.0,34,-99.99,,,-99.99,,2013-03-06 20:52:00,
2013-03-06 14:01:00,45.0,18.0,-100.00,SE,145,15.0,18.0,33,-99.99,,,-99.99,,2013-03-06 21:01:00,
2013-03-06 14:11:00,45.0,18.0,-100.00,SSE,150,17.0,19.0,33,-99.99,,,-99.99,,2013-03-06 21:11:00,
2013-03-06 14:21:00,44.0,19.0,-100.00,SSE,150,14.0,18.0,35,-99.99,,,-99.99,,2013-03-06 21:21:00,
2013-03-06 14:31:00,44.0,18.0,-100.00,SSE,150,16.0,21.0,34,-99.99,,,-99.99,,2013-03-06 21:31:00,
2013-03-06 14:41:00,44.0,18.0,-100.00,SE,145,16.0,21.0,34,-99.99,,,-99.99,,2013-03-06 21:41:00,
2013-03-06 14:51:00,46.0,19.0,-100.00,SE,140,14.0,18.0,33,-99.99,,,-99.99,,2013-03-06 21:51:00,
2013-03-06 15:01:00,46.0,19.0,-100.00,SE,145,13.0,17.0,33,-99.99,,,-99.99,,2013-03-06 22:01:00,
2013-03-06 15:11:00,46.0,18.0,-100.00,SSE,155,14.0,17.0,33,-99.99,,,-99.99,,2013-03-06 22:11:00,
2013-03-06 15:21:00,44.0,18.0,-100.00,SSE,150,16.0,21.0,35,-99.99,,,-99.99,,2013-03-06 22:21:00,
2013-03-06 15:31:00,45.0,19.0,-100.00,SE,135,17.0,19.0,35,-99.99,,,-99.99,,2013-03-06 22:31:00,
2013-03-06 15:41:00,45.0,19.0,-100.00,SE,145,15.0,19.0,35,-99.99,,,-99.99,,2013-03-06 22:41:00,
2013-03-06 15:51:00,45.0,19.0,-100.00,SSE,160,13.0,19.0,33,-99.99,,,-99.99,,2013-03-06 22:51:00,
2013-03-06 16:01:00,44.0,19.0,-100.00,SSE,155,14.0,16.0,35,-99.99,,,-99.99,,2013-03-06 23:01:00,
2013-03-06 16:11:00,44.0,18.0,-100.00,SSE,160,14.0,16.0,35,-99.99,,,-99.99,,2013-03-06 23:11:00,
2013-03-06 16:21:00,46.0,20.0,-100.00,SSE,150,7.0,14.0,35,-99.99,,,-99.99,,2013-03-06 23:21:00,
2013-03-06 16:31:00,47.0,20.0,-100.00,South,170,9.0,14.0,33,-99.99,,,-99.99,,2013-03-06 23:31:00,
2013-03-06 16:41:00,47.0,20.0,-100.00,South,185,9.0,15.0,33,-99.99,,,-99.99,,2013-03-06 23:41:00,
2013-03-06 16:52:00,49.0,19.0,-100.00,SSE,160,8.0,12.0,30,-99.99,,,-99.99,,2013-03-06 23:52:00,
2013-03-06 17:01:00,49.0,19.0,-100.00,WSW,240,10.0,17.0,30,-99.99,,,-99.99,,2013-03-07 00:01:00,
2013-03-06 17:11:00,49.0,18.0,-100.00,WSW,255,16.0,19.0,29,-99.99,,,-99.99,,2013-03-07 00:11:00,
2013-03-06 17:21:00,47.0,19.0,-100.00,WSW,250,11.0,21.0,33,-99.99,,,-99.99,,2013-03-07 00:21:00,
2013-03-06 17:31:00,46.0,18.0,-100.00,West,260,9.0,14.0,32,-99.99,,,-99.99,,2013-03-07 00:31:00,
2013-03-06 17:41:00,46.0,18.0,-100.00,WSW,250,10.0,12.0,32,-99.99,,,-99.99,,2013-03-07 00:41:00,
2013-03-06 17:51:00,45.0,17.0,-100.00,WSW,250,11.0,17.0,31,-99.99,,,-99.99,,2013-03-07 00:51:00,
2013-03-06 18:01:00,45.0,16.0,-100.00,West,260,9.0,16.0,31,-99.99,,,-99.99,,2013-03-07 01:01:00,
2013-03-06 18:11:00,44.0,16.0,-100.00,West,270,9.0,12.0,32,-99.99,,,-99.99,,2013-03-07 01:11:00,
2013-03-06 18:21:00,43.0,16.0,-100.00,WSW,245,4.0,11.0,32,-99.99,,,-99.99,,2013-03-07 01:21:00,
2013-03-06 18:31:00,43.0,16.0,-100.00,West,260,4.0,6.0,32,-99.99,,,-99.99,,2013-03-07 01:31:00,
2013-03-06 18:41:00,43.0,16.0,-100.00,SW,235,4.0,6.0,33,-99.99,,,-99.99,,2013-03-07 01:41:00,
2013-03-06 18:51:00,43.0,15.0,-100.00,WSW,240,9.0,11.0,32,-99.99,,,-99.99,,2013-03-07 01:51:00,
2013-03-06 19:01:00,42.0,15.0,-100.00,West,265,3.0,9.0,33,-99.99,,,-99.99,,2013-03-07 02:01:00,
2013-03-06 19:11:00,41.0,15.0,-100.00,NW,315,4.0,6.0,33,-99.99,,,-99.99,,2013-03-07 02:11:00,
2013-03-06 19:21:00,40.0,15.0,-100.00,NW,305,7.0,9.0,35,-99.99,,,-99.99,,2013-03-07 02:21:00,
2013-03-06 19:31:00,40.0,16.0,-100.00,NW,315,3.0,6.0,37,-99.99,,,-99.99,,2013-03-07 02:31:00,
2013-03-06 19:41:00,40.0,16.0,-100.00,NW,315,3.0,6.0,37,-99.99,,,-99.99,,2013-03-07 02:41:00,
2013-03-06 19:51:00,40.0,16.0,-100.00,NW,315,3.0,6.0,37,-99.99,,,-99.99,,2013-03-07 02:51:00,
2013-03-06 20:01:00,38.0,16.0,-100.00,SSW,200,1.0,2.0,40,-99.99,,,-99.99,,2013-03-07 03:01:00,
2013-03-06 20:11:00,39.0,17.0,-100.00,North,5,2.0,5.0,40,-99.99,,,-99.99,,2013-03-07 03:11:00,
2013-03-06 20:21:00,37.0,17.0,-100.00,SW,225,2.0,5.0,42,-99.99,,,-99.99,,2013-03-07 03:21:00,
2013-03-06 20:31:00,37.0,16.0,-100.00,WSW,240,10.0,12.0,42,-99.99,,,-99.99,,2013-03-07 03:31:00,
2013-03-06 20:41:00,39.0,17.0,-100.00,SW,220,12.0,16.0,39,-99.99,,,-99.99,,2013-03-07 03:41:00,
2013-03-06 20:51:00,41.0,16.0,-100.00,WSW,245,9.0,14.0,35,-99.99,,,-99.99,,2013-03-07 03:51:00,
2013-03-06 21:01:00,41.0,16.0,-100.00,WSW,240,12.0,15.0,36,-99.99,,,-99.99,,2013-03-07 04:01:00,
2013-03-06 21:11:00,42.0,16.0,-100.00,WSW,245,14.0,18.0,34,-99.99,,,-99.99,,2013-03-07 04:11:00,
2013-03-06 21:21:00,41.0,16.0,-100.00,NNW,345,4.0,12.0,35,-99.99,,,-99.99,,2013-03-07 04:21:00,
2013-03-06 21:31:00,38.0,17.0,-100.00,NNW,335,11.0,16.0,42,-99.99,,,-99.99,,2013-03-07 04:31:00,
2013-03-06 21:51:00,36.0,22.0,-100.00,NNE,15,7.0,17.0,57,-99.99,,,-99.99,,2013-03-07 04:51:00,
2013-03-06 22:01:00,35.0,24.0,-100.00,NNE,15,6.0,11.0,62,-99.99,,,-99.99,,2013-03-07 05:01:00,
2013-03-06 22:12:00,35.0,24.0,-100.00,NNE,15,9.0,12.0,64,-99.99,,,-99.99,,2013-03-07 05:12:00,
2013-03-06 22:22:00,35.0,25.0,-100.00,North,0,7.0,12.0,66,-99.99,,,-99.99,,2013-03-07 05:22:00,
2013-03-06 22:31:00,36.0,25.0,-100.00,North,355,6.0,10.0,63,-99.99,,,-99.99,,2013-03-07 05:31:00,
2013-03-06 22:41:00,36.0,24.0,-100.00,NW,310,6.0,7.0,61,-99.99,,,-99.99,,2013-03-07 05:41:00,
2013-03-06 22:52:00,37.0,23.0,-100.00,West,270,4.0,7.0,55,-99.99,,,-99.99,,2013-03-07 05:52:00,
2013-03-06 23:01:00,38.0,22.0,-100.00,West,265,1.0,10.0,51,-99.99,,,-99.99,,2013-03-07 06:01:00,
2013-03-06 23:11:00,37.0,23.0,-100.00,SSW,195,6.0,10.0,57,-99.99,,,-99.99,,2013-03-07 06:11:00,
2013-03-06 23:21:00,36.0,23.0,-100.00,South,185,7.0,9.0,57,-99.99,,,-99.99,,2013-03-07 06:21:00,
2013-03-06 23:31:00,36.0,23.0,-100.00,NE,50,6.0,9.0,59,-99.99,,,-99.99,,2013-03-07 06:31:00,
2013-03-06 23:41:00,35.0,23.0,-100.00,NE,40,12.0,17.0,62,-99.99,,,-99.99,,2013-03-07 06:41:00,
2013-03-06 23:51:00,35.0,23.0,-100.00,South,180,7.0,11.0,61,-99.99,,,-99.99,,2013-03-07 06:51:00,